Date,TemperatureHighF,TemperatureAvgF,TemperatureLowF,DewpointHighF,DewpointAvgF,DewpointLowF,HumidityHigh,HumidityAvg,HumidityLow,PressureMaxIn,PressureMinIn,WindSpeedMaxMPH,WindSpeedAvgMPH,GustSpeedMaxMPH,PrecipitationSumIn
2013-4-1,42.7,32.5,21.1,26.5,9.9,-10.1,70,41,13,30.21,29.74,26,11,26,0.00
2013-4-2,43.6,29.3,18.8,18.6,6.2,-22.5,90,46,6,30.34,30.13,24,8,26,0.00
2013-4-3,46.2,32.2,16.4,16.3,2.9,-21.3,86,37,5,30.44,30.28,16,5,16,0.00
2013-4-4,57.5,38.3,20.3,19.6,6.2,-21.5,85,35,4,30.43,29.94,15,4,16,0.00
2013-4-5,52.5,41.6,32.0,28.5,11.1,-14.8,69,34,7,30.25,29.93,15,5,16,0.00
2013-4-6,60.8,44.7,30.4,23.9,13.6,-4.9,70,33,10,30.27,29.73,24,11,26,0.00
2013-4-7,60.2,53.2,42.8,41.6,31.0,21.6,71,44,26,30.01,29.64,36,13,36,0.00
2013-4-8,70.2,49.6,36.0,55.5,38.5,27.1,99,69,30,30.05,29.67,32,9,32,0.16
2013-4-9,72.3,54.5,40.3,56.0,42.9,35.2,98,69,31,30.08,29.79,26,6,26,0.00
2013-4-10,54.1,45.8,41.3,47.6,45.0,41.0,100,97,70,29.97,29.80,20,8,20,0.39
2013-4-11,42.4,39.5,37.0,42.4,39.4,36.7,100,100,92,29.98,29.62,28,14,28,0.79
2013-4-12,41.4,39.1,37.4,40.1,35.1,25.8,100,86,59,29.84,29.58,22,9,24,0.35
2013-4-13,40.6,37.8,35.2,35.2,27.7,19.8,96,68,46,30.00,29.79,27,11,27,0.35
2013-4-14,55.2,42.1,33.5,38.6,32.1,21.8,97,69,43,30.12,29.89,20,7,20,0.35
2013-4-15,67.7,54.3,35.8,52.0,42.7,33.7,100,69,36,29.98,29.81,24,8,24,0.35
2013-4-16,61.0,51.2,44.6,50.7,39.7,20.5,100,69,26,30.23,29.84,22,5,23,0.35
2013-4-17,53.8,47.0,41.7,42.5,30.8,23.3,99,54,38,30.32,29.94,22,10,22,0.20
2013-4-18,74.5,56.7,41.6,60.4,53.4,38.6,100,90,45,30.07,29.59,38,11,38,1.61
2013-4-19,57.7,44.3,37.5,57.7,39.0,22.6,100,82,54,29.66,29.43,32,16,34,0.98
2013-4-24,39.9,35.8,33.8,38.7,34.9,32.0,100,96,81,30.01,29.80,20,7,20,0.12
2013-4-25,50.8,44.1,36.2,36.1,25.0,13.5,78,48,29,30.41,29.88,29,11,29,0.00
2013-4-26,58.5,44.6,27.2,35.6,26.6,12.2,100,57,22,30.50,30.31,16,5,16,0.00
2013-4-27,67.8,52.9,33.4,40.2,27.7,7.3,100,48,12,30.40,30.06,16,4,17,0.00
2013-4-28,58.3,52.5,47.0,58.1,48.2,32.6,100,87,49,30.10,29.78,12,4,12,0.39
2013-4-29,69.4,59.3,52.7,54.7,49.4,37.3,100,74,34,29.95,29.81,13,5,15,0.00
2013-4-30,74.3,62.4,50.9,53.0,48.5,39.3,100,65,28,30.05,29.90,19,8,20,0.00